FW6856 Weather Reports


time (UTC)temp
C
wind
direction
speed
KPH
gust
KPH
rain 1hr
cm
rain 24hr
cm
rain mn
cm
humidity
%
barometer
mb
20260509024542 8 360 1.6 8.0 0.00 0.00 0.00 86 1017.5
20260509023049 8 0 0.0 4.8 0.00 0.00 0.00 86 1017.5
20260509021546 8 0 1.6 8.0 0.00 0.00 0.00 85 1017.3
20260509020054 8 239 1.6 8.0 0.00 0.00 0.00 85 1017.3
20260509014551 8 219 0.0 4.8 0.00 0.00 0.00 86 1017.3
20260509013055 9 218 0.0 4.8 0.00 0.00 0.00 86 1017.3
20260509011548 8 211 3.2 8.0 0.00 0.00 0.00 87 1017.2
20260509010047 8 0 0.0 3.2 0.00 0.00 0.00 87 1017.1
20260509004550 9 236 0.0 12.9 0.00 0.00 0.00 86 1017.0
20260509003050 9 0 0.0 0.0 0.00 0.00 0.00 86 1017.0
20260509001542 9 0 0.0 6.4 0.00 0.00 0.00 85 1017.0
20260509000048 10 135 0.0 4.8 0.00 0.00 0.00 85 1017.1
20260508234551 10 0 0.0 6.4 0.00 0.00 0.00 84 1017.0
20260508233050 10 0 0.0 6.4 0.00 0.00 0.00 84 1016.9
20260508231543 10 143 0.0 3.2 0.00 0.00 0.00 82 1016.8
20260508230050 11 0 0.0 3.2 0.00 0.00 0.00 80 1017.2
20260508224550 11 0 0.0 4.8 0.00 0.00 0.00 80 1016.9
20260508223047 11 192 0.0 3.2 0.00 0.00 0.00 78 1016.7
20260508221543 11 0 1.6 3.2 0.00 0.00 0.00 76 1017.1
20260508220051 12 360 0.0 4.8 0.00 0.00 0.00 77 1016.9
20260508214550 12 173 1.6 8.0 0.00 0.00 0.00 74 1017.2
20260508213050 12 225 1.6 8.0 0.00 0.00 0.00 73 1016.8
20260508211539 13 219 1.6 12.9 0.00 0.00 0.00 72 1017.3
20260508210045 13 197 4.8 14.5 0.00 0.00 0.00 69 1017.0
20260508204545 13 360 4.8 16.1 0.00 0.00 0.00 71 1017.0
20260508203043 14 244 1.6 8.0 0.00 0.00 0.00 69 1017.0
20260508201551 13 229 1.6 6.4 0.00 0.00 0.00 70 1017.2
20260508200045 15 360 3.2 9.7 0.00 0.00 0.00 64 1017.3
20260508194544 15 97 3.2 8.0 0.00 0.00 0.00 63 1017.3
20260508193043 15 278 3.2 9.7 0.00 0.00 0.00 63 1017.7
20260508191543 15 247 1.6 6.4 0.00 0.00 0.00 64 1018.0
20260508190044 15 53 1.6 12.9 0.00 0.00 0.00 61 1018.1
20260508184549 14 178 1.6 8.0 0.00 0.00 0.00 65 1018.2
20260508183044 15 205 1.6 9.7 0.00 0.00 0.00 64 1018.3
20260508181555 14 150 4.8 12.9 0.00 0.00 0.00 64 1018.5
20260508180044 15 0 1.6 12.9 0.00 0.00 0.00 68 1018.6
20260508174604 13 224 1.6 19.3 0.00 0.00 0.00 66 1018.5
20260508173051 13 0 3.2 11.3 0.00 0.00 0.00 67 1018.5
20260508171545 12 248 1.6 11.3 0.00 0.00 0.00 68 1018.8
20260508170043 13 196 1.6 12.9 0.00 0.00 0.00 68 1018.8
20260508164546 12 250 3.2 9.7 0.00 0.00 0.00 70 1019.0
20260508163053 13 258 3.2 12.9 0.00 0.00 0.00 68 1019.1
20260508161548 12 164 1.6 8.0 0.00 0.00 0.00 71 1019.3
20260508160045 12 227 1.6 12.9 0.00 0.00 0.00 73 1019.4
20260508154544 12 303 3.2 9.7 0.00 0.00 0.00 72 1019.3
20260508153043 11 97 3.2 14.5 0.00 0.00 0.00 73 1019.5
20260508151544 11 148 1.6 8.0 0.00 0.00 0.00 72 1019.5
20260508150048 11 218 3.2 12.9 0.00 0.00 0.00 73 1019.4
20260508144546 11 70 3.2 9.7 0.00 0.00 0.00 77 1019.3
20260508143044 10 0 1.6 8.0 0.00 0.00 0.00 78 1019.4
20260508141609 10 132 1.6 8.0 0.00 0.00 0.00 81 1019.3
20260508140043 9 0 1.6 6.4 0.00 0.00 0.00 81 1019.2
20260508134558 8 60 3.2 11.3 0.00 0.00 0.00 81 1019.4
20260508133044 8 0 0.0 4.8 0.00 0.00 0.00 82 1019.4
20260508131546 8 360 0.0 6.4 0.00 0.00 0.00 83 1019.3
20260508130043 7 112 1.6 6.4 0.00 0.00 0.00 83 1019.3
20260508124548 7 360 1.6 6.4 0.00 0.18 0.00 84 1018.9
20260508123047 7 360 1.6 6.4 0.00 0.18 0.00 83 1018.8
20260508121551 6 109 1.6 4.8 0.00 0.18 0.00 83 1018.6
20260508120045 6 112 1.6 4.8 0.00 0.18 0.00 82 1018.4
20260508114543 6 360 0.0 4.8 0.00 0.28 0.00 77 1018.1
20260508113052 5 89 3.2 6.4 0.00 0.28 0.00 77 1018.1
20260508111544 5 89 3.2 6.4 0.00 0.28 0.00 79 1017.5
20260508110047 5 96 3.2 6.4 0.00 0.28 0.00 81 1017.4
20260508104544 5 100 3.2 6.4 0.00 0.53 0.00 83 1017.0
20260508103046 5 75 3.2 11.3 0.00 0.53 0.00 85 1016.9
20260508101542 4 236 0.0 4.8 0.00 0.53 0.00 87 1016.9
20260508100042 4 0 0.0 3.2 0.00 0.53 0.00 88 1016.5
20260508094542 4 0 0.0 6.4 0.00 0.61 0.00 88 1016.5
20260508093048 4 327 1.6 9.7 0.00 0.61 0.00 88 1016.2
20260508091550 4 50 0.0 9.7 0.00 0.61 0.00 90 1015.9
20260508090046 3 57 1.6 6.4 0.00 0.61 0.00 94 1015.8
20260508084542 4 0 0.0 3.2 0.00 0.69 0.00 94 1016.2
20260508083059 4 304 0.0 9.7 0.00 0.69 0.00 94 1015.9
20260508081551 4 271 1.6 6.4 0.00 0.69 0.00 94 1015.9
20260508080044 5 316 1.6 8.0 0.00 0.69 0.00 94 1015.9
20260508074549 5 250 1.6 8.0 0.00 0.84 0.00 93 1015.9
20260508073047 5 310 3.2 11.3 0.00 0.84 0.00 93 1015.8
20260508071548 5 285 3.2 14.5 0.00 0.84 0.00 92 1015.7
20260508070047 5 309 4.8 12.9 0.00 0.84 0.00 92 1015.8
20260508064544 5 275 4.8 12.9 0.00 0.91 0.00 92 1015.9
20260508063042 5 280 3.2 9.7 0.00 0.91 0.00 91 1015.6
20260508061549 5 360 4.8 19.3 0.00 0.91 0.00 91 1015.6
20260508060047 6 297 6.4 17.7 0.00 0.91 0.00 90 1015.6
20260508054548 6 320 3.2 16.1 0.00 1.14 0.00 89 1015.5
20260508053049 6 360 8.0 17.7 0.00 1.14 0.00 89 1015.5
20260508051546 6 313 6.4 22.5 0.00 1.14 0.00 88 1015.4
20260508050054 6 360 6.4 24.1 0.00 1.14 0.00 87 1015.5
20260508044553 6 300 11.3 25.7 0.00 1.42 0.00 86 1015.2
20260508043049 6 291 9.7 25.7 0.00 1.42 0.00 86 1015.2
20260508041550 6 244 11.3 24.1 0.00 1.42 0.00 86 1015.2
20260508040043 6 360 9.7 24.1 0.00 1.42 0.00 87 1015.1
20260508034553 6 294 9.7 24.1 0.00 1.42 1.42 87 1015.0
20260508033054 6 360 11.3 25.7 0.00 1.42 1.42 87 1015.2
20260508031551 6 325 8.0 24.1 0.00 1.42 1.42 86 1015.3
20260508030056 6 360 9.7 24.1 0.00 1.42 1.42 87 1015.5